GFSSW_850_temp_162.txt.gz
Temp
14 15 15 16 16 16 16 16 16 16 16 16 16 17 17 18 18 18 19 19 20 19 18 18 17 17 17 17 17 17 21 22 22 21 23 22 23 21 21 22 21 21 22 20 19
12 13 14 15 15 15 16 16 16 16 17 17 17 17 17 18 18 19 19 19 19 19 18 17 17 16 18 18 17 20 20 22 22 22 22 22 22 22 22 23 22 21 21 21 20
12 13 14 15 15 15 16 16 16 16 16 16 17 16 16 17 17 19 19 19 19 18 17 17 17 17 18 18 18 19 20 21 21 20 20 21 21 21 22 22 23 23 22 20 19
12 13 14 14 15 15 15 16 16 17 17 17 16 16 16 16 20 19 19 20 19 18 17 16 17 18 19 19 19 19 19 19 20 19 19 21 21 21 21 22 22 21 21 21 20
12 12 13 14 14 15 15 15 16 16 17 17 17 16 15 15 17 19 19 19 18 17 16 17 18 18 19 19 18 19 20 19 18 18 18 19 19 21 21 21 21 20 19 20 20
11 12 13 14 14 15 15 15 16 17 17 17 17 16 14 16 18 19 18 18 18 17 16 17 18 18 19 19 19 19 18 19 19 19 19 19 20 20 21 21 21 20 20 20 20
11 12 12 13 14 15 15 16 16 16 17 17 17 16 14 16 18 17 18 17 17 16 16 16 16 17 18 19 18 18 18 20 20 20 20 18 20 21 20 21 20 21 20 20 20
11 11 12 13 14 15 15 16 16 17 17 16 16 15 15 17 17 17 16 16 17 16 16 16 16 17 17 17 18 19 19 19 20 19 19 18 21 22 20 20 20 21 21 21 20
11 11 12 12 13 14 15 15 16 17 16 15 14 14 16 16 16 16 16 15 16 15 15 16 16 17 16 18 19 19 19 20 20 19 20 19 21 21 19 19 20 21 21 21 20
11 11 11 12 13 13 14 15 16 15 14 14 13 13 15 15 15 15 15 14 14 15 15 15 17 18 18 18 19 20 19 20 19 20 18 19 19 21 21 20 20 21 21 21 21
11 11 11 12 12 13 14 15 14 13 14 14 14 13 14 15 15 15 15 14 15 16 17 16 17 17 19 19 19 19 18 18 20 19 17 19 20 21 21 20 20 21 22 22 21
11 11 11 11 12 12 13 12 8 9 10 12 12 12 13 12 12 15 15 16 16 17 17 16 16 19 19 18 17 17 17 18 19 19 18 19 19 20 21 21 21 21 22 22 22
10 10 10 11 11 12 11 10 9 8 7 11 11 11 11 12 13 14 13 15 17 17 16 18 19 18 17 16 16 17 17 18 18 19 18 18 18 21 20 20 20 19 19 20 21
9 10 10 10 10 10 9 9 9 7 14 16 13 13 12 12 14 14 13 15 16 16 17 16 18 17 16 16 17 17 18 17 16 16 17 18 18 21 20 20 22 21 19 18 17
9 9 10 10 10 9 9 9 9 8 16 15 14 12 13 14 14 14 14 14 16 16 16 17 16 16 16 17 17 17 17 16 16 16 17 17 17 21 17 19 22 20 17 15 14
9 9 9 10 10 9 9 9 9 13 15 15 14 13 14 15 15 15 15 14 15 16 16 17 17 17 18 18 18 17 16 15 15 16 16 18 18 20 19 20 22 20 16 14 12
8 9 9 9 9 9 9 9 13 14 15 12 10 11 13 13 14 14 14 16 16 15 16 18 17 17 17 16 17 16 15 14 14 15 16 16 16 19 19 17 20 20 18 13 12
8 8 8 9 9 9 9 12 12 12 10 9 9 11 12 10 12 11 13 14 14 12 14 15 16 18 17 17 17 15 16 14 13 15 16 14 15 19 17 16 16 16 14 12 12
7 7 7 8 8 9 9 11 10 8 7 6 10 10 12 9 9 10 11 11 10 10 10 13 15 18 17 18 18 16 15 17 15 14 14 16 18 18 16 17 15 15 13 11 11
7 6 6 7 8 8 11 10 7 6 6 7 8 8 8 8 7 9 9 10 8 7 8 10 9 14 15 16 17 18 17 13 12 12 12 16 17 18 17 17 17 14 12 11 9
5 5 5 6 6 7 8 7 5 4 5 6 6 6 6 6 6 7 7 9 7 7 8 7 7 11 12 14 16 15 14 15 15 14 16 16 16 18 17 16 14 13 11 11 9
5 6 4 5 6 3 6 6 4 4 4 4 4 5 5 5 5 5 6 7 8 6 6 7 5 7 10 14 13 12 11 15 14 14 15 16 17 17 16 14 12 12 11 10 10
3 3 3 3 4 3 3 3 3 4 4 4 4 4 5 4 3 5 5 6 5 6 6 7 7 6 10 13 10 6 5 6 7 11 14 15 17 15 15 14 12 12 12 11 10
3 2 2 2 1 5 3 3 2 2 2 3 3 3 3 4 5 3 4 5 4 5 5 5 6 5 7 9 6 5 5 4 5 8 13 16 15 14 13 13 14 13 12 12 11
2 1 1 2 2 4 3 3 2 2 2 2 3 3 3 1 3 3 3 4 5 4 5 5 4 7 7 8 8 6 7 6 4 5 6 6 9 13 13 13 13 13 12 11 11
1 -0 -1 -1 0 0 1 1 2 2 2 2 2 3 3 1 2 1 2 3 3 5 4 5 4 5 5 7 8 7 8 9 8 5 5 6 6 10 12 12 13 14 12 12 12
1 1 1 -1 0 2 3 2 2 2 1 2 2 2 2 3 2 2 2 2 2 2 4 3 3 4 4 7 7 7 9 9 9 10 6 8 9 10 12 12 12 13 12 12 12

GFSSW_850_temp_165.txt.gz
Temp
13 14 15 15 15 15 16 16 16 17 17 17 17 17 17 18 18 18 17 19 18 19 18 17 17 18 18 19 19 20 22 23 25 24 25 25 25 24 24 25 24 24 24 23 22
14 14 15 15 15 15 16 16 16 16 17 17 17 17 18 18 18 17 18 18 18 18 17 17 18 18 19 20 19 21 22 24 25 25 24 25 24 25 24 24 25 24 24 22 21
13 13 14 15 15 15 15 16 16 17 17 17 17 17 17 17 17 21 19 19 19 18 18 18 19 19 20 20 20 22 21 25 24 23 23 23 24 23 24 24 25 25 24 23 21
12 13 14 14 14 15 15 16 17 17 17 17 17 17 17 17 21 19 19 20 19 19 18 18 19 19 20 21 21 21 22 22 22 22 21 22 23 24 23 24 25 24 24 24 22
12 12 13 14 14 15 15 16 16 17 17 17 17 17 16 16 19 19 19 19 19 17 18 19 19 20 21 22 22 21 22 22 22 21 21 21 22 22 22 23 23 23 22 22 23
12 13 13 14 14 15 15 15 16 17 17 17 17 17 15 18 19 19 18 18 17 17 18 19 20 20 21 21 21 22 21 21 21 21 21 21 22 22 22 22 23 23 23 22 22
12 12 13 13 14 14 15 15 16 17 17 17 16 16 14 18 17 17 18 16 16 17 18 18 19 19 20 21 21 21 20 22 22 22 22 22 21 22 22 23 23 23 23 23 22
12 12 13 13 14 14 15 16 16 17 17 17 16 15 16 17 17 17 15 16 16 16 17 17 17 18 19 20 20 20 21 21 24 22 22 20 21 25 23 24 23 23 23 23 23
11 12 12 13 13 14 15 15 16 17 16 16 14 13 19 17 16 15 16 17 16 16 16 16 17 18 19 19 20 21 20 22 23 23 22 21 21 25 22 22 22 23 23 23 23
11 11 12 12 13 13 14 15 16 16 15 15 12 13 16 17 15 15 15 16 16 16 16 17 17 19 19 20 19 21 23 23 22 23 21 21 21 23 23 23 23 23 23 23 23
11 11 12 12 12 13 14 14 15 15 14 16 16 15 16 15 15 16 16 16 16 17 18 18 18 18 19 21 21 21 21 21 21 23 22 21 21 22 22 23 23 23 23 23 24
10 11 11 12 12 13 12 11 9 9 11 14 13 12 13 12 14 16 15 17 17 18 19 19 17 19 20 21 20 20 19 19 21 22 21 20 20 22 22 22 22 23 23 23 24
10 11 11 11 11 11 11 10 10 8 10 15 13 13 13 12 16 17 15 17 18 18 19 19 20 20 20 19 19 18 18 18 19 21 21 20 20 21 23 24 23 23 23 23 23
9 10 10 10 10 10 9 10 10 7 14 16 15 14 14 13 16 15 15 16 18 17 18 19 20 19 19 18 19 17 19 19 19 18 18 21 19 21 23 24 24 24 23 22 22
9 10 10 10 10 10 9 10 10 7 16 17 15 13 15 16 16 16 14 15 16 18 18 19 19 18 18 19 19 18 20 19 18 18 19 19 19 21 23 23 23 24 21 19 20
8 9 9 9 9 9 10 10 8 14 16 15 15 14 16 16 16 16 16 15 16 17 18 18 19 19 19 19 19 19 18 18 18 17 16 19 19 20 22 23 22 23 21 18 16
8 8 9 9 8 9 10 8 14 15 18 14 12 13 14 14 14 14 15 16 17 15 17 19 20 20 19 18 19 18 17 15 16 16 17 20 19 20 23 21 20 22 20 17 15
8 8 8 8 9 9 8 13 13 15 13 12 11 13 15 12 14 14 14 15 15 13 14 15 16 19 21 19 18 19 18 16 14 16 18 18 16 19 22 19 18 19 18 16 15
7 7 8 7 9 8 9 13 14 11 10 9 12 14 14 13 11 12 13 13 12 11 11 12 14 18 17 18 18 18 16 18 16 18 17 17 19 20 21 20 18 18 15 15 14
7 6 6 8 8 7 11 12 11 9 8 10 10 12 11 11 10 10 11 12 11 9 9 10 9 13 15 16 17 16 18 15 14 12 14 17 19 19 19 19 18 16 14 14 12
6 6 6 7 8 9 10 11 8 7 7 8 8 9 9 9 8 9 9 10 10 9 8 9 8 10 12 13 14 16 16 16 14 14 16 17 19 22 21 19 16 15 13 13 9
3 5 5 6 9 8 9 7 6 7 6 7 7 7 7 7 7 7 8 9 9 8 7 9 7 8 9 12 13 13 10 9 8 14 15 17 19 20 19 16 15 13 12 12 10
1 4 3 6 6 6 6 6 6 6 6 6 6 6 7 6 5 7 7 8 7 7 7 7 7 6 8 11 13 9 6 5 7 6 10 14 17 20 17 16 14 14 13 12 11
1 4 4 4 5 8 7 7 6 4 5 5 6 6 5 6 7 5 6 7 5 5 6 6 5 5 5 7 8 7 4 5 5 6 5 7 8 16 14 13 13 14 13 13 12
2 4 4 4 5 7 8 7 6 4 4 5 5 5 5 3 4 5 6 6 6 6 6 6 5 6 7 8 8 9 9 6 5 5 6 7 5 6 12 13 11 11 13 13 13
1 2 2 3 5 5 4 5 5 6 5 5 5 5 5 4 4 4 5 5 5 6 6 7 5 6 5 7 8 8 9 9 8 8 5 6 6 10 12 12 13 12 13 14 14
1 2 3 2 4 5 5 5 5 5 4 5 5 5 4 5 4 4 4 4 5 5 4 4 4 4 4 6 7 6 8 9 10 10 10 7 8 9 11 12 12 12 12 13 13

GFSSW_850_temp_168.txt.gz
Temp
15 15 15 15 15 15 16 16 17 17 17 17 17 18 18 19 19 19 17 18 18 19 18 17 17 18 18 19 19 20 18 19 22 23 25 26 25 25 24 25 25 25 25 23 22
15 15 15 15 15 16 16 16 17 17 17 17 17 17 18 18 19 20 18 19 19 18 18 17 18 19 19 20 19 20 18 21 24 23 22 24 24 24 24 24 24 25 24 23 21
14 14 14 15 15 15 15 16 16 17 17 17 17 17 18 18 18 19 20 19 20 19 18 18 19 19 19 20 20 21 18 21 23 23 23 23 23 24 24 22 24 25 24 23 22
13 13 14 14 14 15 15 15 16 16 17 17 17 17 17 18 20 20 20 20 20 19 18 19 19 20 20 20 21 20 22 22 22 23 22 21 22 23 23 23 24 24 25 24 22
12 12 13 13 14 14 15 15 16 16 17 17 17 17 17 16 18 18 19 19 19 19 17 19 19 20 19 21 22 21 22 22 22 23 22 21 21 21 22 23 23 24 24 23 23
12 12 13 13 14 15 15 15 16 16 17 17 17 17 16 17 18 18 18 19 18 18 18 19 20 21 21 21 20 22 22 21 21 21 22 21 21 22 22 22 22 22 23 23 23
12 13 13 14 14 15 15 16 16 17 17 17 17 16 14 17 17 18 17 17 17 17 18 19 19 20 20 20 21 21 20 20 21 22 21 22 20 20 22 22 22 23 23 23 23
12 12 12 13 13 14 14 15 16 16 17 17 16 15 15 17 18 18 17 17 17 17 17 18 19 18 19 20 20 20 19 18 21 23 23 22 18 21 23 24 23 23 23 23 23
11 11 12 13 13 13 14 15 16 16 16 16 15 14 17 17 17 16 16 17 17 16 17 17 17 18 19 18 17 19 18 19 21 22 22 20 19 21 22 23 23 23 23 23 24
10 11 12 12 12 13 14 15 16 16 14 14 13 14 16 18 15 16 16 16 17 17 17 17 17 17 17 17 16 18 19 20 20 23 21 20 19 20 22 22 22 22 23 23 23
10 11 11 12 12 13 14 15 15 14 14 15 16 16 16 16 16 16 17 16 17 17 17 18 16 16 17 18 19 19 19 19 20 21 20 20 20 20 21 22 21 22 22 23 23
10 10 11 11 12 12 12 11 9 10 9 15 14 14 14 14 15 17 17 17 17 17 18 18 16 18 19 20 19 19 18 18 19 21 20 20 19 20 20 21 21 22 22 23 23
10 10 11 11 11 11 10 10 10 8 10 15 14 15 14 14 16 17 16 17 17 17 18 17 19 21 19 18 18 18 18 17 17 19 19 18 17 19 20 21 21 21 22 22 23
10 10 10 11 11 11 10 11 10 9 12 16 15 14 15 14 16 16 16 16 18 17 18 18 19 19 19 18 19 17 19 19 18 17 16 19 15 18 20 21 21 23 23 22 22
9 9 10 10 10 10 10 11 10 9 14 18 16 15 16 17 16 16 16 16 16 17 17 17 18 17 17 18 19 18 19 18 18 17 16 17 16 18 19 20 21 22 20 20 19
8 8 9 8 9 8 10 11 10 12 14 16 15 15 16 17 16 15 16 16 16 16 17 17 19 18 18 19 19 19 18 17 17 15 13 16 16 17 18 20 20 21 20 18 17
8 8 8 9 9 9 10 9 12 13 18 14 13 14 15 14 15 15 14 15 15 14 15 16 18 18 19 18 18 17 16 13 13 12 13 17 17 18 20 20 20 19 19 17 16
8 7 8 8 9 10 9 11 11 16 14 13 13 13 14 13 14 13 14 14 13 11 12 13 14 18 14 14 14 15 16 13 12 12 13 18 14 17 20 19 19 19 19 17 16
6 7 7 6 9 9 8 10 13 12 11 10 13 14 14 13 12 12 12 12 11 10 9 10 12 14 13 14 14 14 13 15 14 15 13 14 17 18 18 17 17 18 17 16 15
5 6 6 7 7 7 9 11 12 10 10 11 11 12 11 11 10 10 10 12 10 10 9 9 7 11 12 12 13 13 15 13 12 11 11 14 15 16 18 18 15 16 14 15 14
4 6 5 6 6 6 8 11 9 8 9 9 9 9 10 9 9 9 9 10 10 9 8 8 7 8 9 10 10 10 11 11 8 11 10 12 14 18 16 16 14 13 14 11 11
4 3 4 4 5 8 8 10 8 8 7 7 8 8 8 7 7 7 8 9 8 8 6 7 6 5 7 9 10 10 10 8 7 9 7 8 11 9 7 13 12 13 12 11 11
3 1 2 4 3 5 7 7 8 7 8 7 7 7 7 6 5 7 7 8 8 7 6 6 5 3 5 8 10 9 7 5 4 5 6 8 10 9 6 6 13 13 12 11 10
1 1 -0 -0 4 7 6 7 6 6 7 7 7 7 6 6 7 6 6 7 7 6 6 6 4 3 2 4 5 5 6 6 6 4 5 5 7 6 4 4 5 12 12 12 11
0 1 3 2 5 7 8 8 6 4 6 6 6 6 6 4 4 5 6 7 7 7 6 6 4 4 5 6 6 6 7 7 6 6 5 6 6 6 4 4 6 10 12 13 12
-0 -0 3 3 5 4 5 6 6 6 5 5 5 6 7 5 5 4 5 5 4 6 5 5 3 4 4 5 6 6 7 7 8 7 6 7 6 8 4 4 6 10 10 11 13
-1 -1 1 1 3 3 5 5 7 7 6 7 6 6 5 5 5 5 4 4 4 4 3 3 3 2 1 4 5 3 6 7 7 8 8 7 8 7 5 4 6 10 10 8 11

GFSSW_850_temp_174.txt.gz
Temp
14 15 15 15 15 15 16 16 16 16 17 17 17 18 18 19 19 20 20 19 19 18 18 19 18 18 18 18 18 19 13 14 17 19 19 21 20 23 23 23 23 23 23 24 21
14 14 14 15 15 15 15 16 16 16 16 17 17 18 18 19 19 20 20 20 19 18 18 18 18 18 18 18 18 16 12 15 17 20 20 20 20 21 21 21 22 22 23 23 21
14 14 14 15 15 15 15 16 16 16 16 17 17 17 18 18 19 19 20 20 20 19 18 18 18 18 18 18 18 16 14 16 19 20 20 20 20 21 20 18 22 22 22 22 22
14 14 14 14 15 15 15 15 16 16 16 17 17 17 17 18 18 19 19 19 19 19 18 18 17 17 16 16 18 16 17 18 19 20 19 19 21 20 20 21 22 21 21 20 21
14 14 14 14 14 15 15 15 15 16 16 16 17 17 17 17 18 18 18 19 19 19 18 18 17 18 16 17 17 16 17 19 20 20 20 20 19 19 20 21 21 22 21 21 21
13 13 14 14 14 15 15 15 16 16 16 16 16 16 16 15 17 18 18 18 18 18 18 18 18 18 18 17 16 18 18 18 19 19 19 18 18 19 21 21 21 21 21 21 22
12 12 13 13 14 14 15 15 16 16 16 16 16 16 15 18 17 17 17 17 17 17 18 18 17 17 18 16 17 18 16 15 17 18 18 19 17 16 21 20 20 21 21 21 21
12 12 12 12 13 14 15 15 16 16 16 16 16 15 16 17 17 17 17 17 17 16 17 17 17 17 17 17 16 15 15 14 16 18 19 18 15 17 21 20 20 21 22 22 22
11 11 11 12 12 13 14 15 16 16 16 16 14 14 16 16 16 17 17 17 17 17 16 17 17 17 17 14 12 13 12 14 15 17 17 17 15 16 20 20 20 21 22 22 22
11 11 11 11 12 13 14 15 16 14 15 14 13 13 16 15 16 16 17 17 17 17 16 16 16 13 11 12 11 12 12 13 14 16 16 16 15 16 20 19 19 20 21 22 22
11 11 11 11 11 12 13 15 15 15 15 14 14 14 15 16 16 17 17 16 16 16 13 15 12 11 12 12 13 13 13 12 14 15 15 15 14 15 17 18 17 18 20 21 21
11 11 11 11 11 11 12 12 10 10 9 14 13 12 14 14 15 16 16 16 15 13 14 13 11 12 13 13 13 13 12 12 13 15 16 15 15 15 15 16 18 19 19 20 21
9 10 10 11 11 11 11 10 9 8 6 12 14 14 14 14 15 16 16 15 15 14 13 11 13 15 14 13 13 13 12 13 14 15 15 15 15 15 15 16 17 19 20 20 20
8 9 9 10 11 11 10 10 9 9 7 12 13 14 14 14 15 16 16 15 15 14 13 12 14 14 14 13 14 13 14 15 14 14 13 15 13 14 15 15 15 17 19 19 20
8 8 8 9 10 10 10 9 10 9 10 14 13 14 15 15 15 15 15 15 14 14 14 13 13 14 13 14 15 14 15 15 15 13 12 13 12 14 14 15 16 15 17 17 18
8 8 8 8 9 10 10 10 10 9 10 13 14 13 14 14 13 14 14 15 13 13 12 12 14 13 13 13 12 13 15 14 14 12 11 12 13 14 13 14 14 15 17 18 18
8 7 8 8 9 9 10 10 8 8 13 12 12 12 12 11 12 11 9 8 9 11 9 10 11 11 11 11 12 12 11 9 10 10 11 12 12 14 12 7 8 12 16 17 17
8 7 8 8 8 9 9 9 9 11 11 12 12 11 11 10 10 10 8 7 8 8 7 7 9 8 9 10 8 9 10 10 9 9 8 10 10 12 8 8 8 7 9 14 15
8 7 7 8 7 8 8 7 8 9 11 10 11 10 9 10 9 9 9 7 7 6 8 6 7 8 8 8 9 8 7 8 8 9 8 8 11 12 9 8 7 7 7 8 13
7 7 6 7 6 7 5 8 10 10 10 10 10 10 8 8 8 8 8 7 6 6 7 5 5 7 7 9 8 7 7 7 7 6 7 9 9 10 8 7 7 7 7 7 9
7 6 4 5 5 6 5 7 10 9 9 9 9 9 7 7 7 7 7 6 7 6 6 6 5 4 6 5 5 6 6 7 5 5 5 7 8 8 7 7 7 7 7 7 8
6 5 4 4 4 4 5 7 9 7 7 7 7 7 7 7 6 7 7 6 7 6 5 5 2 1 3 5 6 5 4 3 3 2 2 3 6 7 7 6 6 6 6 6 8
5 4 3 4 2 2 4 6 8 7 7 6 6 6 6 6 6 6 6 6 6 6 5 5 2 -2 2 3 3 3 3 4 3 1 1 3 6 7 6 7 7 5 6 5 7
4 1 1 3 1 2 4 4 4 4 4 5 6 6 5 5 5 5 5 6 6 6 6 5 2 -0 -0 1 0 -1 0 1 2 1 -1 2 3 5 5 6 7 6 5 5 6
2 1 1 0 -0 1 1 2 2 1 4 4 4 5 5 4 4 5 5 4 5 5 4 3 1 1 1 2 2 2 2 2 -0 1 0 2 2 3 5 5 7 6 6 6 6
3 1 -0 -0 -0 0 1 1 2 2 4 4 4 4 4 3 4 3 3 3 3 2 2 1 0 1 0 2 2 2 2 2 2 2 2 3 3 5 6 6 6 6 6 6 6
3 2 2 1 0 -0 0 2 2 3 2 2 2 5 4 5 5 4 5 4 2 1 0 0 -0 -2 -2 1 1 -1 2 2 3 3 3 2 4 5 5 6 7 6 6 6 6

GFSSW_850_temp_177.txt.gz
Temp
15 15 15 15 15 15 15 16 16 16 17 17 17 18 18 19 19 20 20 20 19 19 19 19 18 18 18 18 18 18 13 13 16 17 19 20 19 22 22 22 22 22 23 22 21
14 14 14 14 15 15 15 15 16 16 16 17 17 18 18 18 19 20 20 19 19 19 18 18 18 17 18 18 18 15 11 14 16 18 19 19 19 21 21 20 21 22 23 23 20
13 14 14 14 14 15 15 15 16 16 16 17 17 17 18 18 19 19 19 19 19 18 17 17 17 17 17 17 17 14 13 14 17 19 19 19 19 20 20 17 21 21 21 21 20
13 14 14 14 14 15 15 15 15 16 16 16 17 17 18 18 18 19 19 19 19 19 18 17 17 17 16 15 17 15 16 17 18 19 18 17 19 19 20 21 21 21 21 20 20
13 13 13 14 14 14 15 15 15 15 16 16 16 17 17 17 18 18 18 18 18 18 18 17 17 17 15 16 16 15 16 18 19 18 19 19 17 17 19 21 21 21 20 21 21
13 13 13 13 14 14 14 14 15 15 16 16 16 16 16 15 17 17 17 17 18 18 17 17 17 17 17 16 15 16 17 16 17 18 17 17 17 17 20 20 20 20 21 21 21
13 13 13 13 13 14 14 15 15 16 16 17 16 16 16 17 17 17 17 17 17 17 17 17 17 17 17 16 17 17 15 14 16 18 17 17 16 16 21 18 19 20 21 21 21
12 12 12 12 12 13 14 15 15 16 16 16 16 16 16 17 17 17 17 17 16 16 16 16 16 17 17 17 16 15 14 14 16 17 18 17 14 16 19 18 19 21 21 21 22
11 11 11 11 11 12 14 15 15 15 15 16 15 15 16 16 16 17 17 16 16 16 16 16 16 16 16 13 12 12 12 13 14 16 16 17 14 16 20 18 18 19 20 20 21
11 11 11 11 11 12 13 15 15 14 14 14 13 13 15 16 16 16 16 17 16 16 16 16 16 12 10 11 11 12 11 12 13 15 15 13 13 13 18 18 17 19 20 20 21
10 10 11 11 11 11 13 15 14 14 14 14 14 13 15 15 15 17 17 16 16 16 13 14 12 10 12 11 13 13 12 12 12 14 13 14 14 13 16 16 17 19 19 20 20
11 10 11 11 11 11 12 11 9 9 7 14 13 13 14 14 14 15 16 15 15 13 12 12 10 12 12 13 12 12 11 11 12 13 13 13 14 14 14 15 17 17 18 18 19
11 11 10 10 10 11 10 10 10 8 6 11 13 13 14 14 14 15 15 15 14 13 12 11 13 13 13 12 12 11 11 11 12 14 13 13 13 14 14 15 17 17 17 18 18
11 10 9 10 10 10 10 10 10 8 7 11 13 14 14 14 14 15 15 15 14 12 12 11 13 13 13 12 12 11 12 13 13 13 11 13 11 13 13 13 15 15 14 15 17
10 9 8 7 9 9 10 10 10 9 11 14 13 14 14 14 14 14 14 15 13 13 13 12 13 13 13 13 13 12 14 13 14 12 11 12 11 12 12 13 12 11 9 13 15
10 10 8 8 8 9 9 10 9 9 10 13 13 13 13 13 13 13 14 14 13 12 11 12 12 11 11 12 12 12 13 12 12 11 9 11 11 13 11 8 8 8 7 9 14
9 8 7 8 8 8 9 10 8 8 12 12 12 12 11 10 12 10 8 7 9 12 10 9 10 9 10 10 10 10 12 8 8 9 11 11 11 13 8 7 7 7 7 7 10
9 8 7 8 8 8 9 9 8 10 10 11 11 11 11 10 10 9 8 7 7 7 7 8 9 7 8 8 8 8 8 8 8 8 8 10 10 11 8 7 7 7 7 7 8
10 7 6 7 7 7 8 7 8 9 11 11 11 10 10 9 10 9 8 6 6 6 8 6 7 7 7 7 8 7 6 8 6 6 5 7 10 7 8 7 7 7 7 7 7
9 6 6 7 7 6 6 8 8 10 10 10 11 10 9 8 9 8 8 6 6 6 6 5 6 5 7 7 7 7 7 6 5 4 6 7 8 9 6 6 7 7 6 6 6
6 6 5 6 5 5 4 6 9 10 10 9 9 9 8 7 7 7 7 6 7 6 6 5 5 5 6 5 5 4 4 5 4 4 3 6 7 7 6 6 7 7 6 6 6
6 6 4 4 4 4 4 7 9 8 7 8 7 8 8 7 6 7 6 6 7 6 5 5 2 3 4 4 4 5 3 3 1 1 -0 0 4 6 6 7 7 7 7 6 6
6 6 4 4 3 2 3 5 7 7 7 7 7 7 5 6 6 6 5 5 5 5 4 5 2 2 3 4 4 2 2 3 0 -0 -1 -1 2 6 5 6 6 6 6 6 6
6 2 2 3 2 2 4 5 6 3 5 5 5 4 5 4 4 3 5 4 5 6 6 5 1 2 3 3 0 -1 0 0 -1 -4 -2 1 1 3 3 4 5 6 6 7 6
4 2 1 0 1 1 2 2 3 2 1 1 2 4 4 2 3 4 4 4 4 5 4 3 1 1 2 2 2 2 2 1 -3 -0 -2 1 1 2 3 4 5 5 6 6 6
3 2 0 -0 -0 -0 1 2 2 2 1 1 2 4 4 3 3 4 4 3 3 2 2 0 0 0 0 1 1 1 2 1 1 1 1 1 1 3 4 4 4 4 6 6 6
4 3 2 1 0 1 0 2 2 3 2 4 4 2 1 1 4 4 5 4 3 1 1 -0 -1 -2 -3 -0 0 -1 1 2 2 2 2 1 3 3 3 3 4 5 5 6 6